Location: Bottens
(46.6171°N, 6.6605°E)
Time: 16:45:23
(UTC+00:00)

Cosmos 2263 - Pass Details

Date: 20 June 2021
Orbit: 832 x 865 km, 70.9° (Epoch: 03 August)

Event Time Altitude Azimuth Distance (km) Brightness Sun altitude
Rises 00:41:12 0° 331° (NNW) 3,424 8.1 -18.4°
Reaches altitude 10° 00:43:41 10° 330° (NNW) 2,479 7.2 -18.2°
Maximum altitude 00:49:20 72° 247° (WSW) 888 4.1 -18.0°
Enters shadow 00:52:38 26° 168° (SSE) 1,611 5.2 -17.8°
